Location: Burland Observatory
(39.4088°N, 105.4217°W)
Time: 22:42:10
(UTC-07:00)

Vanguard 3 - Pass Details

Date: 17 December 2019
Orbit: 508 x 3263 km, 33.3° (Epoch: 17 January)

Event Time Altitude Azimuth Distance (km) Brightness Sun altitude
Rises 05:30:17 0° 226° (SW) 2,818 - -19.6°
Exits shadow 05:32:05 - 217° (SW) 2,189 9.2 -19.3°
Reaches altitude 10° 05:32:26 10° 214° (SW) 2,083 9.1 -19.2°
Maximum altitude 05:36:35 30° 152° (SSE) 1,492 8.9 -18.5°
Drops below altitude 10° 05:42:49 10° 95° (E) 3,206 11.4 -17.3°
Sets 05:46:58 0° 86° (E) 4,674 12.4 -16.5°
